Flag for Mexico Weather past 2 weeks in San Luis Potosi, San Luis Potosí, Mexico

Now
68 °F

Broken clouds.


Feels Like: 68 °F
Forecast: 60 / 71 °F
Wind: 9 mph from East

Location: San Luis Potosi - S. L. P.

Current Time: Sep 21, 2014 at 8:02:14 PM

Latest Report: Sep 21, 2014 at 6:53 PM


Visibility: 12 mi

Pressure: 29.79 "Hg

Humidity: 78%

Dew point: 61 °F

Location of San Luis PotosiLocation

Historic Weather in San Luis Potosi — Graph

°F

San Luis Potosi temperature yesterday

Maximum temperature yesterday: 82 °F (at 2:47 PM)
Minimum temperature yesterday: 61 °F (at 6:48 AM)
Average temperature yesterday: 64 °F

Past Weeks' High & Low Weather Summary

 TemperatureHumidityPressure
High84 °F (Sep 19, 4:45 PM)100% (Sep 10, 8:10 AM)30.36 "Hg (Sep 10, 8:10 AM)
Low55 °F (Sep 10, 6:45 AM)29% (Sep 19, 4:45 PM)29.64 "Hg (Sep 19, 6:55 PM)
Average65 °F72%30.07 "Hg
* Reported Sep 6 7:45 PM — Sep 21 6:53 PM, San Luis Potosi, Weather by CustomWeather, © 2014

Note: Actual official high and low records may vary slightly from our data, if they occured in-between our weather recording intervals... More about our weather records

Advertising

San Luis Potosi weather history for previous 24 hours

 ConditionsComfort  
Time TempWeatherWind HumidityBarometerVisibility
6:53 PM
Sep 21
68 °FBroken clouds.9 mph78%29.79 "Hg12 mi
5:51 PM66 °FBroken clouds.No wind88%30.17 "Hg12 mi
5:11 PM66 °FRain. Partly sunny.9 mph83%30.16 "Hg7 mi
4:46 PM70 °FBroken clouds.5 mph73%30.16 "Hg15 mi
3:43 PM73 °FBroken clouds.5 mph61%29.78 "Hg15 mi
2:46 PM70 °FLight rain. Partly sunny.No wind69%30.20 "Hg15 mi
11:46 AM70 °FPartly sunny.No wind60%30.28 "Hg10 mi
10:47 AM68 °FPartly sunny.No wind69%30.28 "Hg10 mi
7:46 AM61 °FOvercast.No wind94%30.24 "Hg4 mi
4:46 AM61 °FMostly cloudy.No wind94%30.18 "Hg7 mi
4:03 AM61 °FMostly cloudy.No wind94%29.73 "Hg7 mi
2:43 AM61 °FMostly cloudy.5 mph94%30.22 "Hg7 mi
1:43 AM61 °FPartly cloudy.No wind94%30.23 "Hg7 mi
12:46 AM61 °FPartly cloudy.No wind94%29.79 "Hg7 mi
9:49 PM
Sep 20
61 °FPassing clouds.No wind94%29.87 "Hg7 mi
8:45 PM61 °FMostly cloudy.8 mph94%30.18 "Hg8 mi
Weather by CustomWeather, © 2014

See weather overviewHow to use our weather pages